Погода в Петропавловске

Казахстан     54˚51′55″N   69˚08′08″E
темп.,
°C
ветер,
м/с
пор.,
м/с
влажн.,
%
обл.,
%
осадки,
мм/ч
давл.,
гПа
погр.,
м
17 января, вс
вс1700:00−7˚зюз51291100 0.1 1007546
03:00−7˚зюз71492100 0.1 1008496
06:00−11˚зюз6119497 0.1 1010267
09:00−12˚зюз6139373 0.0 1011297
12:00−11˚юз6139056 0.0 1011309
15:00−8˚юз818811 0.0 1009555
18:00−9˚юз7188118 0.0 1008694
21:00−9˚зюз9168967 0.1 1007997
18 января, пн
пн1800:00−10˚зюз8158983 0.1 1008856
03:00−13˚зюз7148992 0.0 1010469
06:00−17˚зюз5129146 0.0 1013277
09:00−20˚зюз59940 0.0 1015186
12:00−20˚зюз48940 0.0 1018232
15:00−19˚з47930 0.0 1019239
18:00−22˚зюз44950 0.0 102266
21:00−23˚зюз34940 0.0 102245
19 января, вт
вт1900:00−24˚юз44940 0.0 102353
03:00−24˚зюз349324 0.0 102231
06:00−24˚юз339261 0.0 102222
09:00−24˚зсз1191100 0.0 102220
12:00−21˚ююв018996 0.0 102220
15:00−19˚в128922 0.0 102245
18:00−22˚в338640 0.0 102225
21:00−21˚в3688100 0.0 1022112
20 января, ср
ср2000:00−20˚в4888100 0.0 1022195
03:00−20˚в61088100 0.0 1021250
06:00−19˚вюв61288100 0.0 1019336
09:00−18˚вюв81586100 0.0 1018434
12:00−17˚вюв81488100 0.0 1016503
15:00−16˚юв71295100 1.2 1014539
18:00−16˚юв4895100 1.9 1014252
21:00−15˚юз4109697 0.1 1016283
21 января, чт
чт2100:00−20˚юз5119694 0.2 1017246
03:00−23˚юз499753 0.0 1017160
06:00−22˚ююз499774 0.0 1016191
09:00−20˚юз51196100 0.0 1015263
12:00−18˚юз5129494 0.0 1014387
15:00−18˚зюз5109282 0.0 1013472
18:00−21˚зюз5119489 0.0 1012412
21:00−25˚зюз499766 0.0 1013162